UTA200 UIII-UWGG

Flight info

Callsign UTA200
Flight time N/A
Altitude 34000
Route BD4D BD R497 KUMOD N869 ADIMA N992 NIKUL/K0859F360 N992 NH P982 BADIK N604 UNANI T382 GILAM GILAM2N
Aircraft B738/M-SDE2E3FGHIRWXY/LB1

Departure

Time N/A
Airport Irkutsk International Airport (UIII)

Arrival

Time 2026-04-22 17:03
Airport Nizhny Novgorod / Strigino International Airport (UWGG)
Time Latitude Longitude Altitude Speed Heading
2026-04-22 16:37 56.68098 45.42543 17917 ft 379 kts 265°
2026-04-22 16:38 56.67803 45.37751 17308 ft 376 kts 265°
2026-04-22 16:38 56.67515 45.33050 16800 ft 371 kts 265°
2026-04-22 16:38 56.67230 45.28408 16264 ft 368 kts 265°
2026-04-22 16:38 56.66948 45.23850 15783 ft 363 kts 265°
2026-04-22 16:39 56.66663 45.19275 15239 ft 361 kts 265°
2026-04-22 16:39 56.66118 45.10591 14278 ft 355 kts 265°
2026-04-22 16:39 56.65838 45.06160 13795 ft 352 kts 265°
2026-04-22 16:40 56.65557 45.01750 13289 ft 350 kts 265°
2026-04-22 16:40 56.65276 44.97377 12742 ft 347 kts 265°
2026-04-22 16:40 56.63492 44.89391 11892 ft 343 kts 234°
2026-04-22 16:41 56.61976 44.86025 11312 ft 347 kts 231°
2026-04-22 16:41 56.60406 44.82685 10845 ft 348 kts 232°
2026-04-22 16:41 56.58881 44.79323 10422 ft 349 kts 233°
2026-04-22 16:41 56.57421 44.75877 10342 ft 339 kts 235°
2026-04-22 16:42 56.56026 44.72509 10155 ft 328 kts 235°
2026-04-22 16:42 56.54672 44.69268 10024 ft 317 kts 235°
2026-04-22 16:42 56.53349 44.66149 9887 ft 307 kts 234°
2026-04-22 16:42 56.52057 44.63138 9753 ft 298 kts 234°
2026-04-22 16:43 56.50798 44.60222 9629 ft 289 kts 234°
2026-04-22 16:43 56.49562 44.57371 9344 ft 287 kts 234°
2026-04-22 16:43 56.48335 44.54546 9037 ft 285 kts 234°
2026-04-22 16:43 56.47112 44.51742 8745 ft 283 kts 234°
2026-04-22 16:44 56.45896 44.48957 8447 ft 281 kts 234°
2026-04-22 16:44 56.44687 44.46190 8139 ft 279 kts 235°
2026-04-22 16:44 56.43483 44.43436 7835 ft 279 kts 235°
2026-04-22 16:44 56.42297 44.40727 7540 ft 277 kts 235°
2026-04-22 16:45 56.41102 44.38000 7249 ft 277 kts 235°
2026-04-22 16:45 56.39906 44.35273 6940 ft 276 kts 235°
2026-04-22 16:45 56.38714 44.32557 6653 ft 275 kts 235°
2026-04-22 16:45 56.37526 44.29853 6377 ft 274 kts 236°
2026-04-22 16:46 56.36341 44.27157 6135 ft 274 kts 236°
2026-04-22 16:46 56.35151 44.24448 5861 ft 276 kts 236°
2026-04-22 16:46 56.33954 44.21735 5583 ft 275 kts 236°
2026-04-22 16:46 56.32765 44.19043 5335 ft 273 kts 236°
2026-04-22 16:47 56.31590 44.16379 5060 ft 270 kts 237°
2026-04-22 16:47 56.30833 44.13412 4717 ft 260 kts 266°
2026-04-22 16:47 56.30904 44.10291 4505 ft 244 kts 290°
2026-04-22 16:47 56.31597 44.07587 4245 ft 235 kts 310°
2026-04-22 16:48 56.32572 44.05246 4000 ft 234 kts 312°
2026-04-22 16:48 56.33458 44.03115 3733 ft 235 kts 310°
2026-04-22 16:48 56.34393 44.00712 3470 ft 234 kts 309°
2026-04-22 16:48 56.35327 43.98304 3200 ft 233 kts 309°
2026-04-22 16:49 56.36261 43.95917 2932 ft 232 kts 310°
2026-04-22 16:49 56.37180 43.93583 2670 ft 230 kts 310°
2026-04-22 16:49 56.38103 43.91245 2538 ft 223 kts 309°
2026-04-22 16:49 56.38809 43.88824 2480 ft 219 kts 284°
2026-04-22 16:50 56.38652 43.86169 2475 ft 211 kts 246°
2026-04-22 16:50 56.37650 43.84469 2430 ft 193 kts 199°
2026-04-22 16:50 56.36400 43.83805 2489 ft 182 kts 197°
2026-04-22 16:50 56.35766 43.83434 2479 ft 181 kts 197°
2026-04-22 16:51 56.34641 43.82863 2334 ft 177 kts 192°
2026-04-22 16:51 56.33482 43.82413 2100 ft 165 kts 190°
2026-04-22 16:51 56.32380 43.82015 1852 ft 158 kts 191°
2026-04-22 16:52 56.32092 43.81911 1793 ft 158 kts 191°
2026-04-22 16:52 56.31014 43.81520 1569 ft 158 kts 191°
2026-04-22 16:52 56.29956 43.81134 1343 ft 156 kts 192°
2026-04-22 16:52 56.28902 43.80747 1153 ft 155 kts 193°
2026-04-22 16:53 56.27849 43.80359 1004 ft 153 kts 191°
2026-04-22 16:53 56.26827 43.79980 790 ft 146 kts 192°
2026-04-22 16:53 56.25858 43.79626 639 ft 140 kts 188°
2026-04-22 16:53 56.24898 43.79277 446 ft 144 kts 192°
2026-04-22 16:54 56.23932 43.78923 297 ft 136 kts 191°
2026-04-22 16:54 56.23061 43.78610 378 ft 125 kts 191°
2026-04-22 16:54 56.22179 43.78283 992 ft 128 kts 192°
2026-04-22 16:54 56.21299 43.77937 1413 ft 135 kts 194°
2026-04-22 16:55 56.20272 43.77893 1486 ft 164 kts 161°
2026-04-22 16:55 56.19275 43.78657 1908 ft 154 kts 148°
2026-04-22 16:55 56.18352 43.79869 2251 ft 182 kts 129°
2026-04-22 16:55 56.17579 43.81897 2267 ft 214 kts 107°
2026-04-22 16:56 56.17319 43.84522 2259 ft 213 kts 82°
2026-04-22 16:56 56.17731 43.87036 2259 ft 211 kts 57°
2026-04-22 16:56 56.18694 43.88963 2258 ft 208 kts 33°
2026-04-22 16:56 56.20017 43.89978 2267 ft 209 kts 11°
2026-04-22 16:57 56.21482 43.89893 2127 ft 215 kts 347°
2026-04-22 16:57 56.22798 43.88675 1972 ft 212 kts 323°
2026-04-22 16:57 56.23733 43.86724 1870 ft 202 kts 303°
2026-04-22 16:57 56.24191 43.84424 1855 ft 189 kts 288°
2026-04-22 16:58 56.24480 43.82999 1803 ft 172 kts 309°
2026-04-22 16:58 56.25389 43.80903 1823 ft 154 kts 322°
2026-04-22 16:58 56.26362 43.80270 1909 ft 161 kts
2026-04-22 16:58 56.27375 43.81010 1877 ft 154 kts 38°
2026-04-22 16:59 56.28170 43.82214 1854 ft 144 kts 41°
2026-04-22 16:59 56.28741 43.83646 1905 ft 140 kts 55°
2026-04-22 16:59 56.29268 43.85133 1873 ft 141 kts 54°
2026-04-22 16:59 56.29878 43.86504 1836 ft 141 kts 29°
2026-04-22 17:00 56.30805 43.86409 1863 ft 146 kts 330°
2026-04-22 17:00 56.30893 43.82815 1858 ft 172 kts 227°
2026-04-22 17:00 56.29915 43.81583 1884 ft 175 kts 211°
2026-04-22 17:01 56.28796 43.80735 1790 ft 174 kts 195°
2026-04-22 17:01 56.27631 43.80268 1523 ft 172 kts 190°
2026-04-22 17:01 56.26465 43.79857 1112 ft 169 kts 191°
2026-04-22 17:01 56.25349 43.79447 705 ft 160 kts 191°
2026-04-22 17:02 56.24278 43.79046 315 ft 151 kts 192°
2026-04-22 17:02 56.23333 43.78708 265 ft 122 kts 192°
2026-04-22 17:02 56.22654 43.78462 264 ft 78 kts 191°
2026-04-22 17:02 56.22236 43.78308 266 ft 55 kts 191°
2026-04-22 17:03 56.21883 43.78177 266 ft 48 kts 191°